Simultaneous Nadir Overpasses (SNOs) Predictions

Prediction of SNOs between NOAA-19 and METOP-C Satellite Orbit:

Table of predicted SNOs for the next 14.0 days since TLE Epoch: 11/9/2019
Index Date (NOAA-19) Time (NOAA-19) Lat,Lon (NOAA-19) SZA (NOAA-19 ) Date (METOP-C) Time (METOP-C) Lat,Lon (METOP-C) SZA (METOP-C ) Distance(km) Time Diff (sec)
1 11/10/2019 12:09:39 79.63, 15.89 97.46 11/10/2019 12:10:49 79.63, 16.07 97.49 3.64 70
2 11/10/2019 13:00:44 -79.62,-176.86 82.54 11/10/2019 13:01:31 -79.60,-176.84 82.55 2.98 47
3 11/10/2019 13:51:39 79.61, -9.40 97.47 11/10/2019 13:52:11 79.61, -9.39 97.48 0.60 32
4 11/10/2019 14:42:43 -79.60, 157.85 82.53 11/10/2019 14:42:51 -79.62, 157.98 82.50 2.87 8
5 11/10/2019 15:33:39 79.61, -34.98 97.49 11/10/2019 15:33:32 79.60, -34.85 97.48 3.10 7
6 11/10/2019 16:24:43 -79.58, 132.56 82.51 11/10/2019 16:24:13 -79.60, 132.52 82.51 2.14 30
7 11/10/2019 17:15:39 79.59, -60.27 97.51 11/10/2019 17:14:54 79.58, -60.31 97.48 1.54 45
8 11/10/2019 18:06:44 -79.59, 106.98 82.49 11/10/2019 18:05:35 -79.59, 107.05 82.51 1.57 69
9 11/21/2019 11:41:36 79.88, 20.47 100.28 11/21/2019 11:42:39 79.86, 25.15 100.57 91.56 63
10 11/21/2019 12:32:30 -79.63,-169.47 79.78 11/21/2019 12:33:27 -79.63,-169.54 79.77 1.47 57
11 11/21/2019 13:23:27 79.63, -2.13 100.23 11/21/2019 13:24:08 79.62, -2.30 100.22 3.39 41
12 11/21/2019 14:14:31 -79.64, 164.95 79.77 11/21/2019 14:14:49 -79.62, 165.00 79.78 2.57 18
13 11/21/2019 15:05:28 79.63, -27.71 100.25 11/21/2019 15:05:30 79.61, -27.76 100.22 2.99 2
14 11/21/2019 15:56:31 -79.62, 139.66 79.76 11/21/2019 15:56:11 -79.61, 139.54 79.78 3.02 20
15 11/21/2019 16:47:28 79.61, -53.00 100.26 11/21/2019 16:46:51 79.63, -52.95 100.26 1.79 37
16 11/21/2019 17:38:31 -79.60, 114.37 79.75 11/21/2019 17:37:32 -79.62, 114.35 79.74 2.44 59




NCC Satellite Simultaneous Nadir Overpasses (SNOs) Prediction Service
